Hourly Data Report for May 23, 2012

All times are specified in Local Standard Time (LST). Add 1 hour to adjust for Daylight Saving Time where and when it is observed.

PENTICTON A
BRITISH COLUMBIA

49°27'45.000" N
119°36'08.000" W
344.40 m
1126146
71889
YYF

Download Data

Hourly Data (May 2012)
Hourly Data Report for May 23, 2012
Temp Definition
°C
Dew Point Temp Definition
°C
Rel Hum Definition
%
Wind Dir Definition
10's deg

Wind Spd Definition
km/h
Visibility Definition
km
Stn Press Definition
kPa
Hmdx Definition


Wind Chill Definition


Weather Definition


TIME
00:00 Legend Double Dagger 10.7 1.6 53 26 5 10.0 96.81     LegendNANA
01:00 Legend Double Dagger 8.2 2.9 69 2 4 10.0 96.85     Mostly Cloudy
02:00 Legend Double Dagger 9.1 1.8 60 33 6 10.0 96.87     LegendNANA
03:00 Legend Double Dagger 8.7 2.7 66   0 10.0 96.90     LegendNANA
04:00 Legend Double Dagger 8.1 3.4 72 6 4 10.0 96.93     Mostly Cloudy
05:00 Legend Double Dagger 9.6 4.0 68   0 10.0 96.94     LegendNANA
06:00 Legend Double Dagger 11.1 4.1 62 19 6 10.0 96.97     LegendNANA
07:00 Legend Double Dagger 12.6 3.1 52 18 6 10.0 96.98     Mostly Cloudy
08:00 Legend Double Dagger 14.1 2.4 45 15 7 10.0 96.97     LegendNANA
09:00 Legend Double Dagger 15.7 1.5 38   0 10.0 96.93     LegendNANA
10:00 Legend Double Dagger 15.2 2.1 41 6 7 10.0 96.91     Mostly Cloudy
11:00 Legend Double Dagger 16.3 0.5 34 9 10 10.0 96.88     LegendNANA
12:00 Legend Double Dagger 16.6 0.4 33   0 10.0 96.84     LegendNANA
13:00 Legend Double Dagger 17.4 -0.2 30 8 8 10.0 96.80     Mostly Cloudy
14:00 Legend Double Dagger 17.7 0.0 30   0 10.0 96.76     LegendNANA
15:00 Legend Double Dagger 19.0 1.2 30 14 6 10.0 96.75     LegendNANA
16:00 Legend Double Dagger 17.7 1.8 34 26 23 10.0 96.77     Mostly Cloudy
17:00 Legend Double Dagger 17.8 0.1 30 30 10 10.0 96.78     LegendNANA
18:00 Legend Double Dagger 17.1 0.4 32 25 14 10.0 96.78     LegendNANA
19:00 Legend Double Dagger 16.1 -0.5 32 21 13 10.0 96.80     Mainly Clear
20:00 Legend Double Dagger 14.5 -0.3 36 2 14 10.0 96.89     LegendNANA
21:00 Legend Double Dagger 13.2 -0.4 39   0 10.0 96.95     LegendNANA
22:00 Legend Double Dagger 10.4 0.5 50   0 10.0 97.00     Clear
23:00 Legend Double Dagger 9.8 0.2 51 26 5 10.0 97.02     LegendNANA

Notes on Data Quality.

Legend

  • E = Estimated
  • M = Missing
  • NA = Not Available
  • ‡ = Partner data that is not subject to review by the National Climate Archives
Date modified: